[[{"header":{"parameterUnit":"m.s-1","parameterCategory":1,"la1":30.2991,"la2":30.254,"lo1":-89.0895,"lo2":-89.0444,"dy":0.0017,"dx":0.0017,"nx":28,"ny":28,"refTime":"2025-06-07T03:00:00:Z","depth":0,"parameterNumber":2,"parameterNumberName":"U-component_of_WINDS"},"data":[0,0,0,0,0,0,0,0,0,0,0,0,0,0,0,0,0,0,0,0,0,0,0,0,0,0,0,0,0,0,0,0,0,0,0,0,0,0,0,0,0,0,0,0,0,0,0,0,0,0,0,0,0,0,0,0,0,0,4.7302,4.7303,0,4.7359,4.736,4.736,4.722,4.7216,4.7212,4.7207,4.727,4.7275,4.7281,0,0,0,0,0,0,0,0,0,0,0,0,0,4.7075,4.708,4.7302,4.7303,4.7304,4.7359,4.736,4.7361,4.7221,4.7216,4.721,4.7205,4.7268,4.7274,4.7281,0,0,0,0,0,0,0,0,0,0,0,0,0,4.7157,4.7081,4.7302,4.7241,4.7236,4.7359,4.736,4.7361,4.7222,4.7216,4.7209,4.7203,4.7265,4.7274,4.7282,4.7469,0,0,4.7309,4.7313,0,0,0,0,0,0,0,0,4.7153,4.7166,4.7249,4.7245,4.724,4.7276,4.7302,4.7397,4.7224,4.7228,4.7207,4.72,4.7277,4.7285,4.731,4.7472,4.7475,4.731,4.7315,4.7319,4.7321,0,0,0,0,0,0,0,4.7147,4.7162,4.7325,4.725,4.7245,4.7211,4.7215,4.732,4.7289,4.7227,4.7217,4.7225,4.7273,4.7302,4.731,4.7475,4.7309,4.7317,4.7322,4.7326,4.779,4.7796,0,0,0,0,0,0,4.7149,4.7159,4.7323,4.7327,4.7179,4.722,4.7225,4.7271,4.7288,4.7284,4.7231,4.7218,4.729,4.73,4.7312,4.7528,4.7319,4.7327,4.7332,4.7783,4.7791,4.7799,0,0,0,0,0,0,4.7145,4.7165,4.7321,4.724,4.7257,4.7231,4.7284,4.7276,4.7304,4.7291,4.7285,4.7265,4.7286,4.73,4.743,4.7528,4.7331,4.7339,4.7774,4.7785,4.7795,4.7964,0,0,0,0,0,0,4.7139,4.7164,4.7234,4.7242,4.7262,4.7438,4.729,4.7282,4.7319,4.7303,4.7321,4.7318,4.7281,4.7418,4.7439,4.7537,4.7345,4.7765,4.7779,4.7792,4.795,4.798,4.8005,0,0,0,0,0,4.7131,4.7281,4.7239,4.7259,4.7349,4.7443,4.7455,4.7408,4.7327,4.7397,4.7389,4.7317,4.7515,4.7432,4.7454,4.7557,4.7759,4.7775,4.7791,4.7937,4.7974,4.8004,0,0,0,0,0,0,4.7287,4.7281,4.7234,4.7391,4.7419,4.742,4.7507,4.7449,4.7501,4.7484,4.7426,4.7431,4.7572,4.7578,4.7486,4.7737,4.7623,4.7644,4.7727,4.7761,4.7788,4.7783,4.7353,0,0,0,0,0,4.734,4.7416,4.7408,4.7547,4.7563,4.7533,4.7573,4.7534,4.7561,4.7572,4.7573,4.7603,4.767,4.7717,4.7779,4.7951,4.7951,4.8032,4.806,4.8083,4.8101,4.8189,4.8224,4.7852,4.7851,4.7851,0,0,4.745,4.7456,4.7508,4.7579,4.7595,4.7675,4.7544,4.7635,4.7694,4.7587,4.7707,4.771,4.7739,4.7889,4.7956,4.7899,4.8204,4.8103,4.8121,4.8127,4.8209,4.8244,4.8276,4.7862,4.786,4.7859,0,0,4.769,4.7704,4.7819,4.7838,4.7864,4.7843,4.7872,4.7881,4.7877,4.7998,4.7918,4.7988,4.8108,4.813,4.8158,4.8405,4.8341,4.8428,4.8571,4.8657,4.8686,4.8712,4.8797,4.8829,4.8447,4.8447,4.8447,0,4.7823,4.7939,4.7887,4.7982,4.8015,4.792,4.8036,4.8058,4.8105,4.8129,4.8065,4.821,4.8224,4.8377,4.8437,4.8464,4.8492,4.8424,4.8686,4.8712,4.8735,4.8815,4.8848,4.8457,4.8456,4.8455,4.8454,0,4.81,4.8183,4.8273,4.8317,4.8361,4.8467,4.843,4.8481,4.8439,4.8425,4.8548,4.856,4.8622,4.8656,4.8618,4.8804,4.8767,4.8696,4.858,4.8781,4.8855,4.8886,4.8472,4.8468,4.8465,4.8462,0,0,4.8439,4.8451,4.8485,4.8503,4.8525,4.8587,4.8689,4.8748,4.8791,4.8827,4.8909,4.9011,4.8945,4.8976,4.8939,4.9016,4.9207,4.8934,4.8934,4.8982,4.9409,4.9459,4.9496,4.9165,4.9171,4.9175,4.9405,0,4.8672,4.8844,4.8799,4.8971,4.9044,4.8956,4.9044,4.9067,4.9057,4.9118,4.9107,4.9179,4.9088,4.9105,4.9177,4.9168,4.9291,4.9152,4.924,4.9244,4.9231,4.9535,4.959,4.9806,4.9434,4.9439,4.9443,0,4.8967,4.9011,4.919,4.9196,4.9226,4.9306,4.9354,4.9415,4.9439,4.9426,4.9461,4.9408,4.9508,4.9393,4.9529,4.9435,4.9469,4.947,4.9477,4.9481,4.9353,4.9544,4.9874,4.9905,4.9489,4.9485,4.9482,0,4.9192,4.9296,4.9415,4.9434,4.9446,4.9504,4.9512,4.9529,4.9567,4.961,4.9633,4.9689,4.9719,4.9764,4.9727,4.9648,4.9868,4.9751,4.9858,4.9859,4.9906,4.9903,5.0243,4.9935,4.9934,4.9933,4.9933,0,4.9455,4.9567,4.9515,4.9588,4.971,4.9659,4.9781,4.9779,4.9795,4.9866,4.9795,4.9863,4.9812,4.9877,4.9849,4.9964,4.9979,4.9971,4.9961,4.9975,4.9976,4.9994,4.9977,4.9942,4.994,4.9938,4.9937,0,4.9725,4.9695,4.9818,4.982,4.9822,4.9912,4.9913,4.998,4.9965,5.0055,5.0074,5.005,5.0121,5.009,5.0166,5.0147,5.0293,5.0267,5.0285,5.0276,5.0384,5.0373,5.0744,5.0789,5.0456,5.0459,5.0462,0,4.9893,4.9976,4.9985,5.0027,5.0039,5.0108,5.0145,5.0098,5.0139,5.0172,5.0235,5.03,5.0349,5.0468,5.0457,5.0514,5.0486,5.0612,5.0494,5.0504,5.0483,5.0477,5.0484,5.0635,5.0639,5.0642,5.0644,0,5.0193,5.0173,5.0229,5.028,5.0325,5.0363,5.0395,5.0434,5.0387,5.0438,5.0509,5.0547,5.0623,5.0688,5.0738,5.0747,5.0688,5.0682,5.0709,5.0722,5.0727,5.0722,5.0345,5.0673,5.067,5.0668,5.0666,5.0665,5.0414,5.0482,5.0499,5.0563,5.0581,5.0612,5.0675,5.0666,5.0724,5.0781,5.0751,5.0833,5.0854,5.0915,5.0931,5.0995,5.0945,5.0986,5.0995,5.1005,5.1017,5.072,5.1005,5.1004,5.1003,5.1002,5.1002,0,5.0706,5.0713,5.0772,5.0817,5.0868,5.0808,5.0839,5.0885,5.0958,5.0982,5.1031,5.1112,5.1174,5.1169,5.1225,5.1277,5.1252,5.1294,5.1288,5.129,5.106,5.1029,5.1313,5.1313,5.1313,5.1313,5.1313,5.1313,5.0864,5.0976,5.0959,5.1079,5.1085,5.1163,5.1186,5.1214,5.1233,5.1326,5.1376,5.1372,5.1384,5.1441,5.1495,5.1491,5.1514,5.1566,5.1553,5.1338,5.1307,5.1277,5.1247,5.1572,5.1573,5.1776,5.1778,5.1779]},{"header":{"parameterUnit":"m.s-1","parameterCategory":1,"la1":30.2991,"la2":30.254,"lo1":-89.0895,"lo2":-89.0444,"dy":0.0017,"dx":0.0017,"nx":28,"ny":28,"refTime":"2025-06-07T03:00:00:Z","depth":0,"parameterNumber":3,"parameterNumberName":"V-component_of_WINDS"},"data":[0,0,0,0,0,0,0,0,0,0,0,0,0,0,0,0,0,0,0,0,0,0,0,0,0,0,0,0,0,0,0,0,0,0,0,0,0,0,0,0,0,0,0,0,0,0,0,0,0,0,0,0,0,0,0,0,0,0,6.4246,6.4247,0,6.4399,6.4401,6.4402,6.4366,6.4363,6.436,6.4357,6.4509,6.4516,6.4523,0,0,0,0,0,0,0,0,0,0,0,0,0,6.3916,6.3923,6.4246,6.4248,6.425,6.4399,6.4401,6.4403,6.4366,6.4363,6.4359,6.4356,6.4507,6.4515,6.4523,0,0,0,0,0,0,0,0,0,0,0,0,0,6.4063,6.3925,6.4245,6.4249,6.4251,6.4398,6.4401,6.4403,6.4367,6.4363,6.4358,6.4354,6.4505,6.4514,6.4524,6.4675,0,0,6.4556,6.456,0,0,0,0,0,0,0,0,6.4055,6.4075,6.4247,6.4249,6.4252,6.4359,6.434,6.4494,6.4368,6.4323,6.4357,6.4352,6.4463,6.4476,6.4514,6.4683,6.4689,6.4557,6.4563,6.4567,6.457,0,0,0,0,0,0,0,6.4045,6.4069,6.4306,6.4249,6.4252,6.4242,6.4258,6.4369,6.4415,6.4327,6.4324,6.4343,6.4463,6.4504,6.4517,6.4691,6.4556,6.4565,6.4572,6.4576,6.4988,6.4993,0,0,0,0,0,0,6.4033,6.406,6.4301,6.4311,6.4141,6.4251,6.4269,6.4329,6.4414,6.4423,6.4347,6.4341,6.4489,6.4506,6.4523,6.4703,6.4567,6.4577,6.4582,6.4983,6.4989,6.4994,0,0,0,0,0,0,6.4026,6.4055,6.4295,6.4185,6.4215,6.4262,6.4329,6.4334,6.4376,6.4429,6.4437,6.4381,6.4486,6.4508,6.4637,6.4708,6.4581,6.459,6.4977,6.4985,6.4992,6.5066,0,0,0,0,0,0,6.4017,6.4053,6.4112,6.4187,6.4221,6.4409,6.4333,6.434,6.4394,6.4387,6.4464,6.4472,6.4485,6.4622,6.4647,6.4719,6.4598,6.4971,6.4981,6.4989,6.5057,6.5075,6.509,0,0,0,0,0,6.4006,6.4127,6.4116,6.4145,6.4296,6.4413,6.4433,6.4446,6.44,6.4458,6.4493,6.4469,6.4696,6.4636,6.4664,6.474,6.4967,6.4978,6.4989,6.505,6.5071,6.5089,0,0,0,0,0,0,6.4058,6.4137,6.4125,6.4274,6.4338,6.4407,6.4482,6.4469,6.4545,6.4536,6.4548,6.4566,6.4697,6.4731,6.4663,6.4889,6.4825,6.4842,6.4862,6.4882,6.4898,6.4886,6.4607,0,0,0,0,0,6.4088,6.4178,6.4241,6.4366,6.4399,6.4435,6.4486,6.4491,6.4557,6.4583,6.4627,6.469,6.4775,6.4831,6.4912,6.5062,6.5077,6.5128,6.5144,6.5157,6.5171,6.5251,6.5273,6.503,6.503,6.503,0,0,6.4148,6.4202,6.4258,6.4378,6.4428,6.4519,6.4458,6.4557,6.4624,6.4598,6.4722,6.4756,6.4827,6.4967,6.503,6.4999,6.5242,6.5171,6.5181,6.5188,6.5264,6.5287,6.5307,6.5037,6.5036,6.5035,0,0,6.4305,6.4357,6.4465,6.4516,6.4592,6.4616,6.4642,6.4713,6.4735,6.486,6.4842,6.4921,6.5068,6.5118,6.5163,6.5338,6.5318,6.5364,6.5448,6.5525,6.5544,6.5561,6.5621,6.5643,6.5378,6.5378,6.5379,0,6.4371,6.4509,6.4523,6.4624,6.4676,6.4657,6.4766,6.4814,6.4913,6.4948,6.4912,6.5095,6.5142,6.5292,6.5334,6.5372,6.54,6.5355,6.5541,6.5558,6.5574,6.5631,6.5654,6.5383,6.5383,6.5382,6.5382,0,6.4584,6.468,6.4759,6.4855,6.4916,6.5021,6.5048,6.5108,6.5107,6.5133,6.5259,6.5315,6.5406,6.5442,6.5442,6.5592,6.557,6.5538,6.5473,6.5602,6.5655,6.5678,6.539,6.5389,6.5387,6.5386,0,0,6.4779,6.4881,6.4909,6.4951,6.5033,6.5107,6.5209,6.53,6.5349,6.5418,6.5502,6.5627,6.5597,6.5648,6.5653,6.5721,6.5853,6.568,6.5682,6.5709,6.6017,6.604,6.6065,6.5841,6.5845,6.5849,6.6011,0,6.4941,6.5123,6.5138,6.5301,6.5388,6.5371,6.546,6.5518,6.5545,6.5622,6.5651,6.5738,6.5693,6.5724,6.579,6.5823,6.5915,6.5812,6.5917,6.5921,6.5898,6.6094,6.6118,6.6268,6.6032,6.6036,6.6038,0,6.5155,6.523,6.5402,6.547,6.5507,6.5587,6.567,6.5744,6.5809,6.5824,6.588,6.5876,6.5979,6.5911,6.6052,6.5981,6.6025,6.6048,6.6054,6.6062,6.5986,6.6106,6.6317,6.6339,6.6072,6.6069,6.6067,0,6.5276,6.542,6.5541,6.5579,6.5662,6.5718,6.5754,6.5816,6.5868,6.594,6.5974,6.6057,6.6101,6.6164,6.6181,6.6131,6.6321,6.6255,6.6333,6.6333,6.6373,6.6369,6.6592,6.6404,6.6404,6.6404,6.6403,0,6.5455,6.556,6.5597,6.5671,6.5787,6.5802,6.5917,6.595,6.6004,6.6083,6.6073,6.6147,6.6166,6.6243,6.6257,6.6369,6.639,6.6403,6.6405,6.6403,6.6401,6.643,6.642,6.641,6.6408,6.6407,6.6406,0,6.561,6.5639,6.5769,6.5837,6.5856,6.5939,6.5996,6.6066,6.6091,6.6191,6.6215,6.6254,6.6344,6.6367,6.6474,6.6484,6.6615,6.6609,6.6594,6.6593,6.6669,6.666,6.6916,6.695,6.6742,6.6744,6.6746,0,6.5721,6.5801,6.5878,6.593,6.597,6.6055,6.6108,6.6126,6.6182,6.6261,6.6321,6.641,6.6481,6.6625,6.6661,6.6742,6.6736,6.682,6.6748,6.6743,6.6735,6.6729,6.6736,6.6833,6.6835,6.6837,6.6839,0,6.5914,6.5924,6.6003,6.6087,6.6151,6.6217,6.6281,6.6324,6.635,6.6413,6.6505,6.656,6.6669,6.6756,6.6838,6.6873,6.686,6.6861,6.6883,6.6881,6.6868,6.6874,6.6629,6.6855,6.6853,6.6852,6.6851,6.6851,6.6049,6.6119,6.6183,6.627,6.632,6.6379,6.6448,6.6482,6.656,6.665,6.6656,6.6755,6.6815,6.6924,6.6964,6.704,6.7015,6.7047,6.7055,6.7062,6.7068,6.6857,6.7055,6.7055,6.7055,6.7054,6.7054,0,6.624,6.628,6.636,6.645,6.6518,6.6501,6.6569,6.6627,6.6715,6.6774,6.6844,6.6949,6.7033,6.7076,6.7159,6.7211,6.7207,6.7232,6.7227,6.7235,6.7087,6.7059,6.7234,6.7234,6.7234,6.7234,6.7234,6.7234,6.6347,6.6463,6.6481,6.6621,6.6661,6.6759,6.6799,6.6853,6.6899,6.7017,6.7087,6.7115,6.7167,6.7253,6.7329,6.7339,6.7369,6.7397,6.7404,6.7264,6.7246,6.7228,6.7202,6.7404,6.7405,6.7546,6.7547,6.7548]}]]